Starlink 1789

operational
NORAD ID: 46690 Int'l Des: 2020-073 Owner: SPXS Country: US Constellation: starlink
LEOCIRCULAR

关于 Starlink 1789

正在加载描述...

实时位置

正在加载3D地球...

即将过境

高度历史

Altitude vs Time

uPlot chart will show altitude changes over time

两行轨道根数

1 46690U 20073W 25298.36970435 .00158573 00000-0 36178-2 0 9996
2 46690 53.0517 111.0105 0006744 204.9252 155.1427 15.41814567276981
Epoch: Oct 25, 2025 • Age: 8 hours

当前状态

高度 439.9 km
速度 7.65 km/s
星下点 28.95°N, 28.47°W
发射日期 Oct 18, 2020
运行时间 5 years
类型 internet

技术详情

分类 Payload
质量 260.00 kg
干质量 248.00 kg
总质量 260.00 kg
长度 0.20 m
直径 2.80 m
跨度 9.00 m
形状 Box + pan
制造商 SPXS
平台类型 Starlink
阶段状态 In Orbit
所有者/国家 SPXS/US

大型星座

Loading constellations...